Flag for Congo Dem.Rep. Weather past 2 weeks in Bukavu, Congo Dem.Rep.

Now
79 °F

Scattered clouds.


Feels Like: 81 °F
Forecast: 56 / 69 °F
Wind: 5 mph from Southwest

Location: Kigali Airport

Current Time: Dec 22, 2014 at 1:34:28 PM

Latest Report: Dec 22, 2014 at 1:30 PM


Visibility: N/A

Pressure: 30.07 "Hg

Humidity: 61%

Dew point: 64 °F

Location of BukavuLocation

Historic Weather in Bukavu — Graph

°F

Bukavu temperature yesterday

Maximum temperature yesterday: 81 °F (at 12:30 PM)
Minimum temperature yesterday: 61 °F (at 5:00 AM)
Average temperature yesterday: 70 °F

Past Weeks' High & Low Weather Summary

 TemperatureHumidityPressure
High86 °F (Dec 7, 2:00 PM)100% (Dec 8, 5:00 AM)30.39 "Hg (Dec 8, 5:00 AM)
Low59 °F (Dec 19, 5:00 AM)37% (Dec 20, 12:00 PM)29.98 "Hg (Dec 7, 3:00 PM)
Average71 °F80%30.10 "Hg
* Reported Dec 7 12:00 Noon — Dec 22 12:30 PM, Bukavu, Weather by CustomWeather, © 2014

Note: Actual official high and low records may vary slightly from our data, if they occured in-between our weather recording intervals... More about our weather records

Advertising

Bukavu weather history for previous 24 hours

 ConditionsComfort  
Time TempWeatherWind HumidityBarometerVisibility
12:30 PM
Dec 22
77 °FScattered clouds.7 mph65%30.12 "HgN/A
11:30 AM73 °FBroken clouds.5 mph74%30.15 "HgN/A
11:00 AM73 °FBroken clouds.5 mph78%30.15 "HgN/A
10:30 AM73 °FBroken clouds.3 mph78%30.15 "HgN/A
10:00 AM70 °FPartly sunny.3 mph88%30.18 "HgN/A
9:30 AM70 °FPartly sunny.No wind88%30.18 "HgN/A
9:00 AM70 °FPartly sunny.No wind88%30.18 "HgN/A
8:30 AM68 °FBroken clouds.3 mph100%30.18 "Hg5 mi
8:00 AM66 °FBroken clouds.No wind100%30.15 "Hg5 mi
7:30 AM66 °FPartly sunny.No wind100%30.15 "Hg5 mi
7:00 AM64 °FPartly sunny.No wind100%30.15 "Hg5 mi
6:30 AM64 °FPartly sunny.No wind100%30.12 "HgN/A
5:30 AM64 °FPartly cloudy.No wind100%30.12 "HgN/A
5:00 AM64 °FPassing clouds.No wind100%30.09 "HgN/A
4:30 AM64 °FPassing clouds.No wind100%30.09 "HgN/A
4:00 AM64 °FPassing clouds.No wind100%30.09 "HgN/A
3:30 AM64 °FPassing clouds.No wind100%30.09 "HgN/A
2:30 AM64 °FPassing clouds.No wind100%30.09 "HgN/A
2:00 AM64 °FPassing clouds.No wind100%30.39 "HgN/A
1:30 AM66 °FPassing clouds.No wind94%30.12 "HgN/A
1:00 AM66 °FPassing clouds.3 mph94%30.12 "HgN/A
12:30 AM66 °FPassing clouds.No wind88%30.15 "HgN/A
11:30 PM
Dec 21
68 °FPassing clouds.No wind88%30.15 "HgN/A
11:00 PM68 °FPassing clouds.3 mph88%30.15 "HgN/A
10:30 PM68 °FPassing clouds.3 mph83%30.15 "HgN/A
9:30 PM68 °FPassing clouds.5 mph83%30.15 "HgN/A
9:00 PM68 °FPassing clouds.5 mph83%30.15 "HgN/A
8:30 PM70 °FPassing clouds.6 mph83%30.12 "HgN/A
8:00 PM70 °FPassing clouds.5 mph83%30.12 "HgN/A
7:30 PM70 °FPassing clouds.6 mph83%30.12 "HgN/A
7:00 PM70 °FPassing clouds.8 mph83%30.09 "HgN/A
6:30 PM72 °FPassing clouds.6 mph78%30.09 "HgN/A
6:00 PM73 °FScattered clouds.10 mph74%30.07 "HgN/A
5:30 PM77 °FPassing clouds.7 mph65%30.07 "HgN/A
5:00 PM77 °FPassing clouds.10 mph65%30.04 "HgN/A
4:30 PM77 °FPassing clouds.9 mph65%30.04 "HgN/A
4:00 PM77 °FScattered clouds.9 mph69%30.04 "HgN/A
3:30 PM75 °FScattered clouds.6 mph69%30.04 "HgN/A
3:00 PM77 °FScattered clouds.3 mph69%30.04 "HgN/A
2:30 PM73 °FThunderstorms. Partly sunny.5 mph78%30.07 "HgN/A
2:00 PM70 °FThunderstorms. Partly sunny.6 mph78%30.07 "HgN/A
1:00 PM77 °FThunderstorms. Partly sunny.7 mph61%30.12 "HgN/A
Weather by CustomWeather, © 2014

See weather overviewHow to use our weather pages